This is the latest recevied weather packets stored in our database for station/object OK2ILA-6. If no packets are shown the sender has not sent any weather packets the latest 10 day(s).
| Time | Temp. | Humidity | Pressure | Rain* | Wind** | Luminosity | Snow |
|---|---|---|---|---|---|---|---|
| 1776935403 | 15.56° C | 41% | 1017.6 hPa | - | - | - | - |
| 1776934803 | 14.44° C | 42% | 1017.8 hPa | - | - | - | - |
| 1776934202 | 14.44° C | 43% | 1017.8 hPa | - | - | - | - |
| 1776933603 | 13.89° C | 45% | 1017.8 hPa | - | - | - | - |
| 1776933003 | 13.89° C | 44% | 1017.8 hPa | - | - | - | - |
| 1776932403 | 14.44° C | 45% | 1017.9 hPa | - | - | - | - |
| 1776931803 | 14.44° C | 45% | 1017.9 hPa | - | - | - | - |
| 1776931202 | 13.89° C | 45% | 1018.1 hPa | - | - | - | - |
| 1776930603 | 13.89° C | 45% | 1018.2 hPa | - | - | - | - |
| 1776930003 | 13.33° C | 44% | 1018.2 hPa | - | - | - | - |
| 1776929403 | 13.89° C | 45% | 1018.3 hPa | - | - | - | - |
| 1776928803 | 13.33° C | 48% | 1018.3 hPa | - | - | - | - |
| 1776928202 | 13.33° C | 48% | 1018.2 hPa | - | - | - | - |
| 1776927603 | 13.89° C | 48% | 1018.4 hPa | - | - | - | - |
| 1776927003 | 13.33° C | 48% | 1018.4 hPa | - | - | - | - |
| 1776926403 | 13.33° C | 48% | 1018.4 hPa | - | - | - | - |
| 1776925803 | 13.33° C | 48% | 1018.6 hPa | - | - | - | - |
| 1776925202 | 12.78° C | 51% | 1018.4 hPa | - | - | - | - |
| 1776924603 | 12.22° C | 52% | 1018.4 hPa | - | - | - | - |
| 1776924003 | 12.22° C | 54% | 1018.4 hPa | - | - | - | - |
| 1776923403 | 11.11° C | 59% | 1018.4 hPa | - | - | - | - |
| 1776922803 | 10.56° C | 62% | 1018.4 hPa | - | - | - | - |
| 1776922202 | 10° C | 64% | 1018.6 hPa | - | - | - | - |
| 1776921603 | 8.89° C | 70% | 1018.5 hPa | - | - | - | - |
| 1776921003 | 7.78° C | 70% | 1018.4 hPa | - | - | - | - |
* Rain since midnight (hover to see other rain measurements)
** Current wind speed in m/s (hover to see current wind gust speed)